Simultaneous Nadir Overpasses (SNOs) Predictions

Prediction of SNOs between AQUA and GOES-15 Satellite Orbit:

Table of predicted SNOs for the next 14.0 days since TLE Epoch: 11/10/2012
Index Date Time (AQUA) AQUA Lat,Lon GOES-15 Lat,Lon Distance(km) Time Diff (sec)
1 11/11/2012 22:34:35 -0.07,-134.84 -0.03,-134.60 26.92 80
2 11/13/2012 22:22:44 0.51,-131.96 -0.04,-134.50 288.92 80
3 11/14/2012 10:44:07 0.55,-137.15 0.01,-134.52 298.81 80
4 11/16/2012 10:32:28 -0.03,-134.32 0.01,-134.41 10.73 80
5 11/18/2012 10:20:58 -0.57,-131.53 0.02,-134.30 314.87 80
6 11/18/2012 22:42:35 -0.52,-136.77 0.01,-134.22 290.49 80
7 11/20/2012 22:31:17 0.02,-134.03 0.01,-134.10 8.24 80
8 11/22/2012 22:20:09 0.60,-131.33 0.00,-133.99 302.53 80
9 11/23/2012 10:41:42 0.49,-136.57 -0.03,-134.01 290.33 80




NCC Satellite Simultaneous Nadir Overpasses (SNOs) Prediction Service
